This is the latest recevied weather packets stored in our database for station/object K1JO. If no packets are shown the sender has not sent any weather packets the latest 10 day(s).
| Time | Temp. | Humidity | Pressure | Rain* | Wind** | Luminosity | Snow |
|---|---|---|---|---|---|---|---|
| 1777909184 | 14.44° C | 62% | 1001.1 hPa | 0 mm | - | 421 W/m² | - |
| 1777908882 | 15° C | 60% | 1001.1 hPa | 0 mm | - | 551 W/m² | - |
| 1777908579 | 15° C | 58% | 1001.2 hPa | 0 mm | - | 615 W/m² | - |
| 1777908276 | 13.89° C | 59% | 1001.2 hPa | 0 mm | - | 403 W/m² | - |
| 1777907972 | 14.44° C | 56% | 1001.2 hPa | 0 mm | - | 316 W/m² | - |
| 1777907668 | 14.44° C | 57% | 1001.2 hPa | 0 mm | - | 409 W/m² | - |
| 1777907363 | 14.44° C | 55% | 1001.5 hPa | 0 mm | - | 525 W/m² | - |
| 1777907060 | 13.89° C | 60% | 1001.6 hPa | 0 mm | - | 515 W/m² | - |
| 1777906758 | 13.33° C | 56% | 1001.7 hPa | 0 mm | - | 482 W/m² | - |
| 1777906454 | 13.33° C | 57% | 1001.7 hPa | 0 mm | - | 329 W/m² | - |
| 1777906151 | 13.33° C | 58% | 1002 hPa | 0 mm | - | 441 W/m² | - |
| 1777905848 | 13.33° C | 57% | 1002 hPa | 0 mm | - | 491 W/m² | - |
| 1777905545 | 13.33° C | 58% | 1002.2 hPa | 0 mm | - | 356 W/m² | - |
| 1777905241 | 13.33° C | 60% | 1002.3 hPa | 0 mm | - | 958 W/m² | - |
| 1777904939 | 12.78° C | 59% | 1002.3 hPa | 0 mm | - | 431 W/m² | - |
| 1777904636 | 12.78° C | 61% | 1002.4 hPa | 0 mm | - | 324 W/m² | - |
| 1777904333 | 12.78° C | 56% | 1002.4 hPa | 0 mm | - | 287 W/m² | - |
| 1777904030 | 12.78° C | 55% | 1002.3 hPa | 0 mm | - | 325 W/m² | - |
| 1777903727 | 12.78° C | 53% | 1002.2 hPa | 0 mm | - | 275 W/m² | - |
| 1777903423 | 13.89° C | 51% | 1002.5 hPa | 0 mm | - | 314 W/m² | - |
| 1777903119 | 13.89° C | 53% | 1002.4 hPa | 0 mm | - | 719 W/m² | - |
| 1777902816 | 13.89° C | 51% | 1002.6 hPa | 0 mm | - | 625 W/m² | - |
| 1777902513 | 13.33° C | 52% | 1002.8 hPa | 0 mm | - | 608 W/m² | - |
| 1777902210 | 13.33° C | 51% | 1002.8 hPa | 0 mm | - | 591 W/m² | - |
| 1777901908 | 13.33° C | 57% | 1002.9 hPa | 0 mm | - | 583 W/m² | - |
* Rain latest hour (hover to see other rain measurements)
** Current wind speed in m/s (hover to see current wind gust speed)